Howell, MI

9:42 PM EST on February 22, 2017 (GMT -0500)
Livingston County

Weather History for KOZW - January, 2012

Change the Weather History Date:

Friday, January 6, 2012

  Actual Average Record
Temperature  
Mean Temperature 46 °F -  
Max Temperature 53 °F 31 °F 53 °F (1998)
Min Temperature 40 °F 18 °F -16 °F (2014)
Degree Days  
Heating Degree Days 18    
Moisture  
Dew Point 33 °F    
Average Humidity 62    
Maximum Humidity 75    
Minimum Humidity 46    
Precipitation  
Precipitation 0.00 in - - ()
Sea Level Pressure  
Sea Level Pressure 29.65 in    
Wind  
Wind Speed 10 mph (SW)    
Max Wind Speed 14 mph    
Max Gust Speed 20 mph    
Visibility 10 miles    
Events      
Averages and records for this station are not official NWS values.
T = Trace of Precipitation, MM = Missing Value Source: NWS Daily Summary

Daily Weather History Graph

Daily Weather History Graph

Search for Another Location

Airport or City:

Trip Planner

Search our weather history database for the weather conditions in past years. The results will help you decide how hot, cold, wet, or windy it might be!

Date:

Astronomy

Jan. 06, 2012 Rise Set
Actual Time 8:06 AM EST 5:17 PM EST
Civil Twilight 7:34 AM EST 5:49 PM EST
Nautical Twilight 6:58 AM EST 6:24 PM EST
Astronomical Twilight 6:24 AM EST 6:58 PM EST
Moon 3:06 PM EST (1/6) 5:45 AM EST (1/6)
Length of Visible Light 10h 14m
Length of Day
9h 11m
Waxing Gibbous, 93% of the Moon is Illuminated
Jan 6
Waxing Gibbous
Jan 9
Full
Jan 16
Last Quarter
Jan 23
New
Jan 30
First Quarter

Hourly Weather History & Observations

Time (EST) Temp. Windchill Dew Point Humidity Pressure Visibility Wind Dir Wind Speed Gust Speed Precip Events Conditions
12:15 AM 41.0 °F 34.7 °F 32.0 °F 70% 29.64 in 10.0 mi WSW 10.4 mph 19.6 mph N/A   Clear
12:34 AM 41.4 °F 34.3 °F 32.0 °F 69% 29.63 in 10.0 mi WSW 12.7 mph 17.3 mph N/A   Clear
12:55 AM 42.4 °F 35.3 °F 32.0 °F 67% 29.63 in 10.0 mi WSW 13.8 mph 18.4 mph N/A   Clear
1:15 AM 43.0 °F 36.0 °F 32.0 °F 65% 29.63 in 10.0 mi WSW 13.8 mph 19.6 mph N/A   Clear
1:34 AM 43.7 °F 36.9 °F 32.0 °F 63% 29.63 in 10.0 mi WSW 13.8 mph 19.6 mph N/A   Clear
1:55 AM 43.7 °F 37.7 °F 32.0 °F 63% 29.63 in 10.0 mi WSW 11.5 mph 18.4 mph N/A   Clear
2:15 AM 43.5 °F 37.9 °F 31.8 °F 63% 29.62 in 10.0 mi WSW 10.4 mph - N/A   Clear
2:34 AM 43.3 °F 38.1 °F 31.6 °F 63% 29.63 in 10.0 mi WSW 9.2 mph 17.3 mph N/A   Clear
3:14 AM 43.0 °F 37.2 °F 31.6 °F 64% 29.64 in 10.0 mi WSW 10.4 mph - N/A   Clear
3:35 AM 43.3 °F 37.7 °F 31.6 °F 63% 29.63 in 10.0 mi SW 10.4 mph 17.3 mph N/A   Clear
3:55 AM 43.2 °F 37.4 °F 31.6 °F 64% 29.63 in 10.0 mi SW 10.4 mph 16.1 mph N/A   Clear
4:14 AM 43.0 °F 37.7 °F 31.5 °F 64% 29.63 in 10.0 mi WSW 9.2 mph 16.1 mph N/A   Clear
4:35 AM 42.8 °F 38.0 °F 31.3 °F 64% 29.62 in 10.0 mi SW 8.1 mph - N/A   Clear
4:54 AM 42.1 °F 37.7 °F 31.1 °F 65% 29.62 in 10.0 mi SW 6.9 mph - N/A   Clear
5:15 AM 41.7 °F 36.7 °F 31.5 °F 67% 29.62 in 10.0 mi SW 8.1 mph - N/A   Clear
5:35 AM 42.3 °F 36.8 °F 31.6 °F 66% 29.61 in 10.0 mi SW 9.2 mph - N/A   Clear
5:54 AM 41.9 °F 36.9 °F 31.5 °F 66% 29.62 in 10.0 mi SW 8.1 mph - N/A   Clear
6:15 AM 41.0 °F 35.8 °F 31.6 °F 69% 29.63 in 10.0 mi SW 8.1 mph - N/A   Clear
6:35 AM 41.4 °F 36.2 °F 31.6 °F 68% 29.63 in 10.0 mi SW 8.1 mph - N/A   Clear
6:54 AM 40.6 °F 35.4 °F 31.5 °F 70% 29.64 in 10.0 mi SW 8.1 mph - N/A   Clear
7:15 AM 40.5 °F 35.8 °F 31.6 °F 71% 29.65 in 10.0 mi SW 6.9 mph - N/A   Clear
7:35 AM 40.3 °F 34.9 °F 31.6 °F 71% 29.65 in 10.0 mi SW 8.1 mph - N/A   Clear
8:15 AM 41.2 °F 35.0 °F 32.0 °F 70% 29.65 in 10.0 mi SW 10.4 mph - N/A   Clear
8:35 AM 41.5 °F 35.9 °F 32.0 °F 69% 29.65 in 10.0 mi SW 9.2 mph 16.1 mph N/A   Clear
8:54 AM 41.9 °F 35.9 °F 32.0 °F 68% 29.65 in 10.0 mi SW 10.4 mph - N/A   Clear
9:15 AM 42.3 °F 37.3 °F 32.0 °F 67% 29.66 in 10.0 mi SW 8.1 mph - N/A   Clear
9:34 AM 42.6 °F 37.2 °F 32.0 °F 66% 29.65 in 10.0 mi SW 9.2 mph - N/A   Clear
9:54 AM 43.7 °F 38.1 °F 32.2 °F 64% 29.66 in 10.0 mi SW 10.4 mph - N/A   Clear
10:15 AM 45.1 °F 39.5 °F 32.5 °F 61% 29.67 in 10.0 mi SW 11.5 mph 16.1 mph N/A   Clear
10:34 AM 45.7 °F 39.8 °F 32.5 °F 60% 29.67 in 10.0 mi SW 12.7 mph - N/A   Clear
10:55 AM 47.7 °F - 33.1 °F 57% 29.68 in 10.0 mi WSW 10.4 mph 16.1 mph N/A   Clear
11:15 AM 48.7 °F - 32.9 °F 54% 29.68 in 10.0 mi SW 13.8 mph - N/A   Clear
11:35 AM 49.5 °F - 33.1 °F 53% 29.67 in 10.0 mi WSW 9.2 mph - N/A   Clear
11:55 AM 50.4 °F - 33.3 °F 52% 29.67 in 10.0 mi WSW 10.4 mph - N/A   Clear
12:14 PM 50.0 °F - 32.9 °F 52% 29.66 in 10.0 mi WSW 11.5 mph 19.6 mph N/A   Clear
12:55 PM 52.0 °F - 33.6 °F 50% 29.65 in 10.0 mi WSW 12.7 mph - N/A   Clear
1:14 PM 52.0 °F - 33.4 °F 49% 29.65 in 10.0 mi SW 12.7 mph - N/A   Clear
1:35 PM 51.8 °F - 33.4 °F 50% 29.64 in 10.0 mi SW 10.4 mph 16.1 mph N/A   Clear
1:55 PM 52.5 °F - 33.1 °F 48% 29.64 in 10.0 mi SW 11.5 mph - N/A   Clear
2:14 PM 52.7 °F - 33.3 °F 48% 29.63 in 10.0 mi SW 11.5 mph - N/A   Clear
2:35 PM 52.9 °F - 32.9 °F 47% 29.63 in 10.0 mi SW 10.4 mph - N/A   Clear
2:55 PM 53.6 °F - 33.1 °F 46% 29.63 in 10.0 mi SW 8.1 mph - N/A   Clear
3:14 PM 52.9 °F - 33.4 °F 48% 29.63 in 10.0 mi SSW 6.9 mph - N/A   Clear
3:35 PM 52.7 °F - 33.4 °F 48% 29.64 in 10.0 mi SW 9.2 mph - N/A   Clear
3:54 PM 52.2 °F - 33.4 °F 49% 29.64 in 10.0 mi WSW 9.2 mph - N/A   Clear
4:15 PM 51.6 °F - 33.8 °F 51% 29.65 in 10.0 mi SW 4.6 mph - N/A   Clear
4:34 PM 50.5 °F - 33.8 °F 53% 29.65 in 10.0 mi SW 4.6 mph - N/A   Clear
4:54 PM 49.3 °F - 33.8 °F 55% 29.65 in 10.0 mi SW 3.5 mph - N/A   Clear
5:15 PM 47.7 °F - 33.8 °F 59% 29.66 in 10.0 mi SSW 4.6 mph - N/A   Clear
5:55 PM 45.3 °F 42.3 °F 32.9 °F 62% 29.68 in 10.0 mi WSW 5.8 mph - N/A   Clear
6:15 PM 45.5 °F 42.5 °F 33.6 °F 63% 29.69 in 10.0 mi WSW 5.8 mph - N/A   Clear
6:34 PM 45.3 °F 42.3 °F 34.0 °F 65% 29.69 in 10.0 mi SW 5.8 mph - N/A   Clear
6:55 PM 45.5 °F 41.8 °F 34.7 °F 66% 29.69 in 10.0 mi WSW 6.9 mph - N/A   Clear
7:15 PM 46.0 °F 43.1 °F 34.9 °F 65% 29.69 in 10.0 mi SW 5.8 mph - N/A   Clear
7:34 PM 45.0 °F 41.8 °F 34.7 °F 67% 29.69 in 10.0 mi WSW 5.8 mph - N/A   Clear
7:55 PM 44.2 °F 41.0 °F 34.7 °F 69% 29.69 in 10.0 mi WSW 5.8 mph - N/A   Clear
8:14 PM 42.6 °F 39.0 °F 34.0 °F 71% 29.69 in 10.0 mi WSW 5.8 mph - N/A   Clear
8:35 PM 42.3 °F 38.6 °F 34.5 °F 74% 29.69 in 10.0 mi SW 5.8 mph - N/A   Clear
8:55 PM 43.0 °F 39.5 °F 34.7 °F 73% 29.68 in 10.0 mi WSW 5.8 mph - N/A   Clear
9:14 PM 43.0 °F 40.3 °F 34.7 °F 73% 29.68 in 10.0 mi SW 4.6 mph - N/A   Clear
9:35 PM 42.1 °F 39.2 °F 34.5 °F 75% 29.68 in 10.0 mi SW 4.6 mph - N/A   Clear
9:55 PM 42.8 °F 39.3 °F 34.7 °F 73% 29.67 in 10.0 mi SW 5.8 mph - N/A   Clear
10:14 PM 42.8 °F 39.3 °F 34.7 °F 73% 29.67 in 10.0 mi SW 5.8 mph - N/A   Clear
10:35 PM 42.6 °F 39.0 °F 34.7 °F 74% 29.67 in 10.0 mi WSW 5.8 mph - N/A   Clear
10:55 PM 42.4 °F 39.6 °F 34.7 °F 74% 29.67 in 10.0 mi WSW 4.6 mph - N/A   Clear
11:14 PM 41.5 °F 38.6 °F 34.7 °F 77% 29.67 in 10.0 mi WSW 4.6 mph - N/A   Clear
11:35 PM 41.4 °F 37.6 °F 34.9 °F 78% 29.67 in 10.0 mi WSW 5.8 mph - N/A   Clear
11:54 PM 41.2 °F 38.2 °F 34.7 °F 78% 29.66 in 10.0 mi WSW 4.6 mph - N/A   Clear